Tracking 17694 objects as of 29-May-2016
HD Live streaming from Space Station
objects crossing your sky now

COSMOS 2251 DEB

Track COSMOS 2251 DEB now!
10-day predictions


NORAD ID: 34544
Int'l Code: 1993-036UE
Perigee: 781.1 km
Apogee: 1,370.4 km
Inclination: 73.9 °
Period: 106.6 minutes
Semi major axis: 7446 km
RCS: 0.0085 m2 (small)
Launch date: June 16, 1993
Source: Commonwealth of Independent States (former USSR) (CIS)
Launch site: PLESETSK MISSILE AND SPACE COMPLEX (PKMTR)

Note: This is SATELLITE DEBRIS
Your satellite tracking list
Your tracking list is empty





NASA's NSSDC Master Catalog

Two Line Element Set (TLE):
1 34544U 93036UE  16149.84888363  .00000208  00000-0  21701-3 0  9994
2 34544  73.9202  60.9101 0395683  12.5510  49.2988 13.51094864358478
Source of the keplerian elements: AFSPC

N2YO: 498